[[{"header":{"parameterUnit":"m.s-1","parameterCategory":1,"la1":30.2991,"la2":30.254,"lo1":-89.0895,"lo2":-89.0444,"dy":0.0017,"dx":0.0017,"nx":28,"ny":28,"refTime":"2025-11-28T03:00:00:Z","depth":0,"parameterNumber":2,"parameterNumberName":"U-component_of_WINDS"},"data":[0,0,0,0,0,0,0,0,0,0,0,0,0,0,0,0,0,0,0,0,0,0,0,0,0,0,0,0,0,0,0,0,0,0,0,0,0,0,0,0,0,0,0,0,0,0,0,0,0,0,0,0,0,0,0,0,0,0,-2.7925,-2.7926,0,-2.8083,-2.8085,-2.8086,-2.8135,-2.8134,-2.8134,-2.8133,-2.8299,-2.8304,-2.8309,0,0,0,0,0,0,0,0,0,0,0,0,0,-2.7669,-2.7673,-2.7924,-2.7926,-2.7928,-2.8082,-2.8085,-2.8087,-2.8135,-2.8134,-2.8133,-2.8133,-2.8298,-2.8304,-2.831,0,0,0,0,0,0,0,0,0,0,0,0,0,-2.7799,-2.7675,-2.7924,-2.7971,-2.7977,-2.8082,-2.8085,-2.8087,-2.8136,-2.8134,-2.8133,-2.8132,-2.8296,-2.8303,-2.8311,-2.8382,0,0,-2.8334,-2.8338,0,0,0,0,0,0,0,0,-2.7792,-2.7808,-2.7962,-2.7968,-2.7975,-2.8088,-2.8056,-2.8186,-2.8136,-2.8075,-2.8133,-2.8132,-2.823,-2.8243,-2.8276,-2.839,-2.8397,-2.8335,-2.834,-2.8343,-2.8345,0,0,0,0,0,0,0,-2.7782,-2.7802,-2.7987,-2.7964,-2.7972,-2.7986,-2.8003,-2.8081,-2.8158,-2.8081,-2.8084,-2.8102,-2.8233,-2.8268,-2.828,-2.8399,-2.8335,-2.8342,-2.8347,-2.835,-2.8581,-2.8583,0,0,0,0,0,0,-2.7765,-2.7794,-2.7982,-2.7992,-2.7878,-2.7991,-2.8011,-2.8053,-2.8157,-2.8172,-2.8103,-2.8104,-2.8255,-2.8271,-2.8286,-2.8376,-2.8343,-2.835,-2.8355,-2.858,-2.8581,-2.8583,0,0,0,0,0,0,-2.7759,-2.7781,-2.7976,-2.7894,-2.792,-2.7997,-2.8044,-2.8057,-2.8091,-2.8174,-2.8188,-2.8124,-2.8255,-2.8275,-2.8358,-2.8383,-2.8354,-2.8361,-2.8578,-2.858,-2.8582,-2.8557,0,0,0,0,0,0,-2.7752,-2.7779,-2.7805,-2.7894,-2.7924,-2.8043,-2.8046,-2.8061,-2.8104,-2.8106,-2.8197,-2.8211,-2.8256,-2.8346,-2.8365,-2.8393,-2.8367,-2.8576,-2.8579,-2.8582,-2.8556,-2.8558,-2.856,0,0,0,0,0,-2.7742,-2.7793,-2.7806,-2.7829,-2.7959,-2.8044,-2.8062,-2.811,-2.8106,-2.8134,-2.8187,-2.8208,-2.8377,-2.8354,-2.8376,-2.8407,-2.8575,-2.8578,-2.8581,-2.8555,-2.8558,-2.856,0,0,0,0,0,0,-2.7706,-2.7805,-2.7821,-2.7902,-2.7964,-2.8052,-2.8089,-2.8112,-2.8178,-2.8178,-2.8237,-2.8257,-2.8335,-2.838,-2.8352,-2.8482,-2.8477,-2.8485,-2.8449,-2.8453,-2.8455,-2.8442,-2.8373,0,0,0,0,0,-2.7707,-2.7767,-2.7851,-2.7915,-2.7945,-2.8011,-2.8051,-2.8083,-2.8151,-2.8178,-2.8237,-2.8303,-2.8371,-2.8415,-2.8482,-2.8563,-2.8584,-2.8595,-2.8597,-2.8599,-2.8605,-2.8652,-2.8658,-2.8594,-2.8594,-2.8594,0,0,-2.7711,-2.7773,-2.7807,-2.7909,-2.7961,-2.8023,-2.8033,-2.8099,-2.8146,-2.8188,-2.8269,-2.8315,-2.8393,-2.8475,-2.8515,-2.8514,-2.8627,-2.8603,-2.8603,-2.8609,-2.8656,-2.8662,-2.8667,-2.8596,-2.8596,-2.8596,0,0,-2.7749,-2.7801,-2.7859,-2.7911,-2.7989,-2.8034,-2.8048,-2.8133,-2.8164,-2.8247,-2.828,-2.8338,-2.8453,-2.8507,-2.855,-2.8609,-2.8632,-2.863,-2.864,-2.8686,-2.8691,-2.8695,-2.8716,-2.8723,-2.8636,-2.8636,-2.8636,0,-2.7744,-2.7837,-2.7887,-2.795,-2.7995,-2.8035,-2.8095,-2.8143,-2.824,-2.827,-2.8269,-2.8415,-2.847,-2.8566,-2.858,-2.8614,-2.8632,-2.8619,-2.8685,-2.8691,-2.8696,-2.8717,-2.8725,-2.8635,-2.8635,-2.8635,-2.8635,0,-2.7827,-2.7891,-2.7929,-2.8019,-2.8068,-2.813,-2.8191,-2.8235,-2.8263,-2.8308,-2.8392,-2.846,-2.8541,-2.8567,-2.8596,-2.8667,-2.8664,-2.8673,-2.867,-2.87,-2.8721,-2.8729,-2.8634,-2.8634,-2.8634,-2.8635,0,0,-2.7846,-2.7963,-2.7976,-2.8018,-2.8107,-2.8159,-2.8223,-2.8302,-2.8338,-2.8404,-2.846,-2.8557,-2.8566,-2.8615,-2.8651,-2.869,-2.8733,-2.8695,-2.8698,-2.8699,-2.8816,-2.8808,-2.8817,-2.8749,-2.875,-2.8752,-2.881,0,-2.7895,-2.8008,-2.8056,-2.8148,-2.8209,-2.8248,-2.8305,-2.8366,-2.841,-2.847,-2.8519,-2.8587,-2.8594,-2.8623,-2.8664,-2.8719,-2.8757,-2.8716,-2.8802,-2.8805,-2.878,-2.8827,-2.8819,-2.887,-2.8818,-2.8819,-2.8821,0,-2.7967,-2.8031,-2.8129,-2.8211,-2.8239,-2.8288,-2.8364,-2.842,-2.8491,-2.8521,-2.8575,-2.8609,-2.8679,-2.8671,-2.877,-2.8741,-2.8779,-2.8812,-2.8815,-2.8824,-2.8814,-2.8838,-2.8888,-2.8895,-2.8834,-2.8833,-2.8832,0,-2.797,-2.8082,-2.8155,-2.8189,-2.8288,-2.8321,-2.8364,-2.8435,-2.8479,-2.8546,-2.8576,-2.8651,-2.8692,-2.875,-2.8804,-2.8794,-2.8898,-2.8895,-2.8925,-2.8924,-2.8945,-2.8943,-2.9001,-2.8971,-2.897,-2.897,-2.897,0,-2.8019,-2.8078,-2.8157,-2.8202,-2.827,-2.8324,-2.839,-2.8436,-2.8498,-2.8554,-2.8594,-2.8646,-2.8714,-2.8775,-2.8818,-2.8894,-2.8912,-2.8939,-2.895,-2.8935,-2.8931,-2.8961,-2.8958,-2.8972,-2.8972,-2.8972,-2.8971,0,-2.8034,-2.809,-2.8172,-2.8258,-2.8281,-2.8327,-2.8401,-2.8447,-2.8493,-2.8563,-2.8583,-2.8656,-2.873,-2.879,-2.8887,-2.8916,-2.8995,-2.9008,-2.897,-2.8976,-2.9003,-2.8999,-2.9082,-2.9096,-2.9055,-2.9056,-2.9056,0,-2.8062,-2.8107,-2.8198,-2.8237,-2.8279,-2.8342,-2.8387,-2.8443,-2.8489,-2.8574,-2.8611,-2.8687,-2.8751,-2.8868,-2.8931,-2.9006,-2.902,-2.9044,-2.9032,-2.9016,-2.9021,-2.9017,-2.9022,-2.9045,-2.9045,-2.9045,-2.9045,0,-2.8105,-2.813,-2.8192,-2.8264,-2.8317,-2.8377,-2.8438,-2.8469,-2.8537,-2.8586,-2.8661,-2.8711,-2.881,-2.8886,-2.8967,-2.9014,-2.9042,-2.9049,-2.906,-2.9045,-2.9021,-2.9034,-2.8973,-2.9047,-2.9046,-2.9046,-2.9046,-2.9046,-2.8127,-2.8169,-2.8239,-2.8308,-2.8359,-2.8415,-2.8463,-2.8514,-2.8577,-2.8661,-2.8691,-2.8769,-2.8841,-2.8953,-2.9,-2.9062,-2.9065,-2.9081,-2.9085,-2.9088,-2.9086,-2.9012,-2.9078,-2.9078,-2.9078,-2.9078,-2.9078,0,-2.8172,-2.8219,-2.8281,-2.8364,-2.8418,-2.8438,-2.8507,-2.8552,-2.8618,-2.8683,-2.8744,-2.8831,-2.8906,-2.8974,-2.9052,-2.9089,-2.9104,-2.9108,-2.9105,-2.9116,-2.9079,-2.9062,-2.9094,-2.9094,-2.9094,-2.9094,-2.9094,-2.9094,-2.8201,-2.8274,-2.8307,-2.8407,-2.8454,-2.8528,-2.8566,-2.8619,-2.867,-2.8765,-2.8826,-2.8869,-2.8936,-2.9019,-2.9088,-2.9107,-2.9134,-2.9134,-2.9156,-2.912,-2.9118,-2.9116,-2.9099,-2.9139,-2.9139,-2.9187,-2.9187,-2.9188]},{"header":{"parameterUnit":"m.s-1","parameterCategory":1,"la1":30.2991,"la2":30.254,"lo1":-89.0895,"lo2":-89.0444,"dy":0.0017,"dx":0.0017,"nx":28,"ny":28,"refTime":"2025-11-28T03:00:00:Z","depth":0,"parameterNumber":3,"parameterNumberName":"V-component_of_WINDS"},"data":[0,0,0,0,0,0,0,0,0,0,0,0,0,0,0,0,0,0,0,0,0,0,0,0,0,0,0,0,0,0,0,0,0,0,0,0,0,0,0,0,0,0,0,0,0,0,0,0,0,0,0,0,0,0,0,0,0,0,5.5785,5.5785,0,5.5814,5.5814,5.5815,5.5759,5.5757,5.5755,5.5753,5.578,5.5782,5.5785,0,0,0,0,0,0,0,0,0,0,0,0,0,5.5677,5.568,5.5785,5.5785,5.5786,5.5814,5.5814,5.5815,5.5759,5.5757,5.5755,5.5753,5.5779,5.5782,5.5785,0,0,0,0,0,0,0,0,0,0,0,0,0,5.5717,5.568,5.5785,5.5761,5.576,5.5814,5.5814,5.5815,5.576,5.5757,5.5754,5.5751,5.5778,5.5782,5.5785,5.5863,0,0,5.5796,5.5798,0,0,0,0,0,0,0,0,5.5715,5.5721,5.5764,5.5763,5.5761,5.578,5.5786,5.5831,5.576,5.5759,5.5753,5.575,5.5782,5.5785,5.5797,5.5864,5.5865,5.5797,5.5799,5.5801,5.5802,0,0,0,0,0,0,0,5.5712,5.5719,5.5796,5.5765,5.5763,5.5748,5.5751,5.5794,5.5786,5.5759,5.5755,5.576,5.5781,5.5793,5.5797,5.5866,5.5797,5.58,5.5802,5.5804,5.5995,5.5998,0,0,0,0,0,0,5.5713,5.5717,5.5795,5.5797,5.5731,5.5752,5.5755,5.5777,5.5785,5.5784,5.5762,5.5757,5.5788,5.5793,5.5797,5.5886,5.58,5.5804,5.5806,5.5993,5.5996,5.5999,0,0,0,0,0,0,5.5711,5.572,5.5794,5.5756,5.5765,5.5757,5.5782,5.5779,5.5791,5.5787,5.5785,5.5777,5.5786,5.5792,5.5847,5.5886,5.5806,5.5809,5.5989,5.5994,5.5998,5.6066,0,0,0,0,0,0,5.5708,5.572,5.575,5.5757,5.5767,5.5844,5.5784,5.5781,5.5798,5.5792,5.58,5.5799,5.5785,5.5841,5.585,5.589,5.5812,5.5985,5.5991,5.5996,5.606,5.6072,5.6082,0,0,0,0,0,5.5704,5.5768,5.5752,5.5762,5.5805,5.5846,5.5852,5.5835,5.5802,5.5831,5.5828,5.5799,5.5882,5.5848,5.5857,5.5898,5.5983,5.5989,5.5996,5.6055,5.607,5.6082,0,0,0,0,0,0,5.5765,5.5769,5.5751,5.5819,5.5833,5.5837,5.5873,5.5851,5.5874,5.5867,5.5844,5.5846,5.5904,5.5907,5.5869,5.5972,5.5926,5.5935,5.5968,5.5982,5.5993,5.5989,5.5815,0,0,0,0,0,5.5786,5.5821,5.5822,5.5882,5.589,5.5881,5.5899,5.5884,5.5897,5.5903,5.5904,5.5917,5.5945,5.5964,5.599,5.6061,5.6061,5.6094,5.6106,5.6115,5.6121,5.6156,5.617,5.6021,5.6021,5.6021,0,0,5.583,5.5837,5.586,5.5895,5.5904,5.5938,5.5886,5.5926,5.5951,5.5908,5.5959,5.5961,5.5973,5.6035,5.6063,5.6039,5.6163,5.6123,5.6131,5.6132,5.6165,5.6179,5.6191,5.6025,5.6024,5.6024,0,0,5.5928,5.5938,5.5988,5.5998,5.6013,5.6006,5.6018,5.6026,5.6025,5.6076,5.6044,5.6074,5.6124,5.6133,5.6145,5.6246,5.6219,5.6256,5.6313,5.6347,5.6359,5.6369,5.6402,5.6415,5.6263,5.6264,5.6264,0,5.5981,5.6033,5.6016,5.6057,5.6072,5.6037,5.6086,5.6096,5.6119,5.6129,5.6103,5.6165,5.6171,5.6233,5.6258,5.627,5.6281,5.6253,5.6359,5.6369,5.6378,5.641,5.6423,5.6268,5.6267,5.6267,5.6266,0,5.6095,5.6132,5.6171,5.6193,5.6213,5.6258,5.6246,5.6268,5.6253,5.6248,5.6299,5.6306,5.6332,5.6346,5.6332,5.6407,5.6391,5.6363,5.6315,5.6397,5.6426,5.6438,5.6273,5.6272,5.6271,5.627,0,0,5.623,5.6243,5.6257,5.6266,5.6279,5.6307,5.635,5.6376,5.6394,5.6411,5.6444,5.6488,5.6461,5.6474,5.646,5.6491,5.6567,5.6458,5.6458,5.6476,5.6647,5.6666,5.668,5.6551,5.6553,5.6555,5.6645,0,5.6324,5.6399,5.6385,5.6456,5.6489,5.6456,5.6493,5.6504,5.6502,5.6527,5.6524,5.6554,5.6519,5.6526,5.6555,5.6552,5.6601,5.6546,5.6579,5.6581,5.6574,5.6696,5.6716,5.68,5.6656,5.6658,5.666,0,5.6444,5.6465,5.6541,5.6547,5.656,5.6594,5.6616,5.6642,5.6654,5.665,5.6665,5.6645,5.6685,5.664,5.6695,5.6658,5.6671,5.6672,5.6674,5.6674,5.6623,5.6695,5.6827,5.6839,5.6678,5.6676,5.6675,0,5.6531,5.6579,5.6629,5.6638,5.6648,5.6672,5.6677,5.6687,5.6703,5.6722,5.6732,5.6756,5.6768,5.6786,5.6772,5.6741,5.6828,5.6782,5.6824,5.6824,5.6841,5.6839,5.6973,5.6855,5.6855,5.6855,5.6855,0,5.6636,5.6682,5.6668,5.6698,5.6749,5.6732,5.6782,5.6783,5.6792,5.6821,5.6795,5.6822,5.6804,5.683,5.682,5.6865,5.6872,5.6868,5.6864,5.6868,5.6868,5.6874,5.6867,5.6858,5.6857,5.6857,5.6856,0,5.674,5.6732,5.6785,5.679,5.6792,5.6829,5.6833,5.6861,5.6857,5.6894,5.6901,5.6894,5.6923,5.6913,5.6944,5.6937,5.6993,5.6984,5.6989,5.6985,5.7026,5.7021,5.7165,5.7182,5.7057,5.7058,5.7059,0,5.6806,5.684,5.685,5.6867,5.6875,5.6904,5.692,5.6905,5.6923,5.6939,5.6964,5.6991,5.7011,5.7059,5.7056,5.7079,5.7067,5.7116,5.707,5.7073,5.7064,5.7061,5.7063,5.7124,5.7126,5.7127,5.7128,0,5.6922,5.6917,5.6941,5.6965,5.6985,5.7002,5.7018,5.7034,5.7019,5.704,5.7069,5.7085,5.7117,5.7143,5.7164,5.7167,5.7145,5.7143,5.7153,5.7156,5.7157,5.7154,5.7011,5.7139,5.7138,5.7137,5.7136,5.7136,5.7007,5.7035,5.7046,5.7074,5.7084,5.7098,5.7124,5.7123,5.7148,5.7172,5.7162,5.7195,5.7205,5.723,5.7237,5.7262,5.7243,5.7258,5.7262,5.7265,5.7269,5.7156,5.7266,5.7266,5.7266,5.7266,5.7265,0,5.7119,5.7124,5.715,5.7172,5.7194,5.7172,5.7188,5.7206,5.7236,5.7248,5.7269,5.7302,5.7327,5.7326,5.7349,5.7369,5.7359,5.7375,5.7372,5.7372,5.7286,5.7274,5.7383,5.7383,5.7383,5.7383,5.7383,5.7382,5.718,5.7226,5.7222,5.7272,5.7277,5.7309,5.732,5.7332,5.7341,5.7379,5.74,5.74,5.7405,5.7429,5.745,5.7449,5.7457,5.7477,5.7472,5.7391,5.7379,5.7368,5.7355,5.748,5.748,5.7555,5.7556,5.7556]}]]